Terminal Aerodrome Forecast
Issued by NWS

Home | Current Version | Previous Version | Text Only | Print | Product List | Glossary On
Versions: 1 2 3 4 5 6 7 8 9 10 11 12
298
FTUS44 KCRP 260534
TAFLRD
TAF
KLRD 260534Z 2606/2706 16012KT P6SM SKC
     FM261000 15012KT P6SM BKN014
     FM261400 16015G22KT P6SM BKN022
     FM261600 16015G22KT P6SM FEW035
     FM262300 13012KT P6SM SCT025=

USA.gov is the U.S. government's official web portal to all federal, state and local government web resources and services.